RH
3208 3306 3408 3485 3849 4465 4875 4622 5255 6056 6758 7026 8323 8954 9020 8563 8142 7760 7386 7016 6767 6575 6423 6284 6113 5955 5815 5658 5419 5123 4809 4501 4320 4208 4191 4219 4259 4303 4337 4347 4364 4360 4359 4306 4255 4206 4154 4063 3962 3844 3776 3719 3694 3653 3605 3541 3536 3521 3509 3492 3645 3926 4247 4538 4801 5085 5447 5902 6439
3318 3311 3305 3385 3671 4255 4686 4533 5416 6246 6953 7450 8345 8741 8714 8260 7984 7570 7156 6847 6691 6516 6357 6183 6033 5878 5735 5556 5274 4962 4655 4396 4291 4247 4260 4295 4304 4319 4324 4328 4344 4312 4259 4181 4127 4094 4058 3987 3894 3858 3803 3751 3709 3654 3573 3495 3472 3466 3442 3379 3541 3907 4379 4816 5113 5385 5691 6030 6462
3226 3189 3164 3159 3334 3803 4259 4467 5500 6284 6970 7682 8148 8352 8378 8264 7904 7426 6944 6635 6472 6309 6186 6068 5930 5789 5601 5389 5092 4787 4506 4327 4291 4285 4305 4314 4294 4286 4292 4303 4281 4217 4164 4107 4091 4073 4065 4026 3987 3924 3872 3808 3741 3691 3627 3572 3524 3515 3455 3350 3519 4045 4681 5243 5461 5708 5985 6275 6572
3050 2979 2904 2919 3165 3695 4285 4722 5695 6620 7387 8006 8299 8408 8437 8514 7912 7254 6670 6335 6225 6125 6012 5904 5755 5580 5372 5101 4823 4583 4398 4305 4277 4273 4258 4244 4245 4245 4222 4231 4244 4240 4219 4202 4176 4151 4120 4095 4050 3995 3928 3851 3762 3696 3646 3616 3593 3573 3522 3399 3581 4200 4942 5562 5755 5984 6228 6465 6675
2776 2809 2933 3155 3465 4072 4771 5311 6251 7384 8274 8493 8983 8851 8531 8459 7820 7036 6358 6080 6017 5917 5800 5626 5420 5226 4992 4756 4559 4430 4342 4280 4223 4180 4136 4119 4126 4151 4201 4280 4352 4376 4378 4322 4266 4211 4158 4100 4047 4003 3942 3867 3803 3720 3660 3605 3621 3615 3566 3497 3666 4210 4947 5632 5910 6166 6407 6625 6817
2716 3131 3511 3749 4000 4679 5469 6002 6868 7698 8389 8836 9001 8821 8466 8093 7490 6778 6184 5918 5798 5642 5478 5256 5017 4820 4670 4548 4442 4359 4264 4191 4103 4043 4031 4045 4108 4212 4342 4469 4522 4485 4426 4332 4266 4214 4159 4120 4056 4003 3925 3864 3817 3768 3699 3605 3608 3623 3619 3580 3695 4145 4773 5453 5866 6219 6531 6770 6975
3316 3864 4121 4125 4444 5183 5941 6317 7056 7612 8112 8767 8960 8677 8184 7719 7117 6562 6105 5800 5583 5372 5142 4909 4712 4589 4512 4455 4372 4264 4169 4086 4045 4051 4081 4169 4310 4442 4537 4593 4531 4459 4388 4322 4284 4249 4197 4147 4063 4010 3941 3885 3830 3788 3713 3605 3594 3610 3625 3608 3737 4053 4540 5121 5630 6096 6494 6814 6991
4175 4426 4410 4348 4851 5461 5981 6239 6814 7319 7869 8477 8691 8351 7800 7408 6775 6339 6010 5718 5455 5161 4901 4700 4578 4491 4429 4372 4294 4262 4245 4250 4256 4270 4343 4462 4573 4633 4637 4584 4530 4484 4438 4417 4380 4327 4272 4199 4132 4062 4004 3940 3873 3789 3711 3620 3606 3635 3641 3619 3777 4015 4327 4731 5256 5766 6222 6600 6753
4720 4610 4455 4583 5129 5551 5835 5949 6400 7016 7610 8003 8120 7766 7301 6998 6539 6173 5870 5600 5274 5007 4798 4632 4568 4487 4449 4408 4453 4515 4577 4601 4553 4567 4627 4736 4766 4744 4689 4648 4631 4608 4594 4573 4529 4491 4449 4382 4306 4220 4122 3996 3864 3775 3683 3637 3675 3668 3652 3645 3801 3992 4215 4414 4784 5219 5665 6069 6261
4848 4555 4470 4847 5211 5424 5532 5603 6178 6874 7395 7555 7571 7343 7016 6783 6398 6050 5711 5412 5128 4915 4774 4661 4587 4574 4617 4737 4836 4895 4923 4909 4830 4830 4866 4901 4883 4892 4886 4875 4858 4841 4821 4814 4818 4791 4718 4631 4512 4369 4220 4058 3890 3742 3669 3686 3717 3701 3672 3669 3812 3987 4131 4229 4405 4711 5056 5437 5573
4711 4511 4597 4961 5075 5101 5164 5377 6134 6850 7337 7447 7365 7112 6821 6544 6236 5916 5597 5296 5094 4942 4826 4677 4600 4707 4873 5051 5058 5080 5081 5076 5071 5083 5097 5129 5156 5181 5168 5160 5141 5140 5131 5124 5125 5066 4967 4818 4660 4483 4308 4115 3927 3797 3720 3745 3742 3716 3692 3709 3840 3953 4052 4076 4160 4364 4609 4861 4950
4599 4581 4787 4971 4917 4884 4989 5314 6210 6960 7426 7558 7291 6892 6498 6254 6011 5758 5520 5322 5176 5039 4903 4745 4648 4805 5044 5198 5214 5248 5280 5317 5349 5381 5419 5446 5460 5463 5436 5405 5362 5361 5371 5389 5317 5181 5021 4852 4711 4573 4404 4218 4039 3897 3809 3781 3764 3719 3710 3742 3841 3920 3958 3970 4047 4158 4305 4444 4575
4593 4732 4964 4996 4958 4939 5099 5569 6587 7309 7662 7636 7122 6641 6234 5998 5797 5644 5546 5438 5320 5209 5084 4917 4822 4947 5168 5378 5425 5501 5553 5602 5642 5652 5665 5664 5622 5575 5501 5439 5411 5415 5422 5432 5308 5112 4895 4739 4660 4577 4479 4347 4169 4012 3886 3837 3785 3759 3762 3799 3867 3895 3902 3909 3988 4069 4154 4240 4391
4684 4866 5057 5100 5107 5196 5525 6311 7292 7774 7820 7466 6844 6371 6051 5856 5764 5709 5667 5615 5509 5403 5308 5208 5189 5264 5412 5576 5667 5716 5773 5791 5786 5748 5694 5607 5517 5440 5370 5342 5340 5344 5351 5319 5160 4962 4785 4646 4600 4563 4506 4430 4267 4119 3990 3889 3834 3822 3811 3826 3868 3858 3873 3931 4025 4084 4140 4197 4342
4694 4866 5044 5173 5319 5678 6320 7259 7912 8061 7759 7106 6540 6166 5966 5889 5901 5900 5869 5816 5729 5620 5548 5552 5617 5689 5758 5819 5864 5857 5833 5778 5711 5620 5513 5403 5312 5281 5289 5289 5301 5294 5264 5168 4966 4805 4663 4579 4569 4596 4603 4575 4422 4226 4055 3924 3881 3850 3850 3853 3846 3875 3952 4067 4162 4223 4259 4302 4413
4757 5039 5405 5742 6094 6616 7240 7879 8245 8071 7533 6791 6351 6119 6039 6037 6086 6104 6064 5999 5902 5825 5791 5826 5908 5963 5990 5997 5942 5848 5748 5646 5555 5436 5328 5223 5192 5206 5240 5277 5278 5245 5137 4980 4789 4640 4564 4531 4659 4822 4940 4919 4645 4340 4079 3931 3908 3907 3897 3889 3900 3994 4123 4270 4358 4394 4422 4454 4553
5167 5769 6505 6994 7281 7555 7834 8141 8295 7897 7248 6570 6300 6186 6170 6208 6245 6236 6179 6084 6030 6019 6008 5994 6005 6017 6000 5947 5867 5767 5684 5594 5480 5359 5240 5146 5108 5125 5168 5206 5190 5081 4953 4786 4648 4535 4511 4597 4856 5113 5279 5213 4789 4401 4095 3936 3946 3960 3986 3995 4084 4261 4472 4619 4645 4622 4613 4636 4716
5941 6697 7475 7908 8110 8241 8297 8319 8106 7570 6951 6475 6329 6273 6263 6295 6294 6266 6187 6119 6108 6116 6112 6097 6029 5970 5909 5833 5783 5739 5676 5588 5478 5360 5244 5153 5101 5081 5088 5098 5028 4931 4805 4658 4523 4447 4503 4689 5040 5326 5424 5221 4761 4385 4121 4031 4055 4098 4174 4251 4495 4796 5050 5173 5087 4998 4908 4900 4974
6852 7490 7961 8259 8574 8655 8480 8088 7706 7224 6771 6442 6370 6323 6288 6273 6244 6197 6173 6174 6185 6195 6199 6187 6095 5995 5906 5862 5845 5807 5744 5671 5584 5458 5350 5231 5182 5139 5095 5069 4975 4819 4692 4559 4497 4518 4639 4891 5195 5326 5294 5003 4670 4465 4369 4373 4406 4460 4555 4744 5162 5537 5789 5827 5676 5491 5344 5278 5383
7747 8119 8214 8293 8562 8545 8259 7692 7393 7074 6754 6471 6417 6341 6261 6187 6162 6141 6159 6230 6284 6277 6252 6239 6130 6050 5986 5968 5930 5914 5881 5836 5734 5633 5486 5366 5288 5244 5192 5119 4981 4843 4738 4695 4762 4891 5051 5237 5298 5245 5092 4881 4753 4743 4826 4945 4978 4989 5048 5298 5776 6105 6270 6255 6083 5886 5743 5696 5800
8572 8585 8254 8001 8135 8114 7930 7550 7288 7017 6769 6589 6469 6355 6244 6184 6173 6169 6208 6292 6377 6337 6234 6215 6200 6159 6123 6122 6081 6064 6039 6009 5911 5780 5644 5523 5423 5359 5267 5186 5094 5059 5067 5169 5342 5507 5606 5622 5498 5342 5186 5076 5047 5113 5228 5375 5394 5341 5355 5482 5819 6084 6230 6223 6116 5996 5925 5987 6087
8777 8538 8079 7726 7770 7817 7782 7583 7223 6970 6792 6681 6539 6426 6366 6354 6376 6384 6391 6411 6500 6420 6334 6341 6395 6417 6409 6380 6326 6259 6188 6139 6045 5944 5848 5767 5669 5581 5489 5384 5343 5354 5475 5715 5997 6176 6246 6178 5948 5723 5542 5473 5429 5400 5411 5449 5531 5541 5501 5470 5562 5706 5828 5857 5825 5844 5911 6094 6192
8372 8122 7831 7651 7715 7765 7727 7550 7219 7013 6854 6748 6637 6575 6556 6583 6676 6718 6704 6670 6708 6690 6648 6607 6623 6642 6636 6576 6486 6387 6317 6248 6205 6158 6141 6117 6089 6031 5947 5811 5723 5711 5828 6105 6523 6763 6844 6817 6496 6165 5883 5774 5695 5585 5498 5489 5661 5759 5794 5698 5613 5578 5560 5544 5549 5639 5809 6008 6101
7787 7725 7698 7720 7820 7836 7737 7525 7213 6990 6856 6780 6726 6666 6636 6670 6881 6963 6984 6916 6940 6913 6850 6755 6726 6712 6700 6662 6602 6526 6457 6407 6446 6451 6453 6451 6464 6403 6289 6111 5984 5996 6168 6519 6906 7126 7178 7083 6762 6474 6270 6200 6045 5870 5763 5811 6001 6176 6237 6156 5930 5738 5584 5528 5547 5624 5705 5810 5864
7478 7613 7779 7995 8082 7992 7796 7507 7189 6971 6821 6775 6736 6648 6562 6534 6813 6898 6890 6879 6902 6925 6901 6865 6837 6819 6787 6753 6712 6630 6587 6570 6622 6634 6616 6550 6497 6401 6286 6137 6178 6316 6531 6864 7061 7087 6991 6831 6741 6750 6746 6628 6358 6179 6195 6402 6674 6859 6881 6692 6343 6031 5789 5657 5610 5595 5608 5655 5777
7707 7948 8167 8324 8106 7905 7700 7490 7163 6942 6836 6805 6776 6652 6486 6355 6589 6696 6742 6797 6876 6908 6926 6897 6918 6881 6819 6753 6686 6636 6592 6613 6642 6622 6575 6513 6500 6461 6381 6257 6303 6512 6742 6883 6944 6812 6617 6526 6755 6926 6945 6711 6314 6256 6405 6703 6979 7170 7305 7348 6941 6526 6116 5780 5559 5462 5512 5697 5853
8119 8278 8337 8296 8048 7858 7666 7380 7142 7013 6955 6984 6944 6794 6610 6422 6608 6772 6876 6961 6962 6927 6887 6847 6857 6787 6698 6585 6568 6551 6566 6590 6584 6587 6606 6684 6683 6607 6520 6411 6434 6564 6696 6697 6592 6442 6372 6411 6695 6851 6793 6420 6019 5880 5981 6223 6501 6728 7098 7722 7307 6774 6209 5730 5487 5451 5559 5770 5866
8389 8392 8316 8200 8017 7819 7579 7276 7134 7080 7061 7067 7015 6872 6717 6616 6782 6942 7048 7052 6925 6775 6658 6667 6676 6591 6458 6372 6436 6522 6645 6767 6885 6978 7014 6973 6856 6666 6487 6342 6305 6327 6331 6262 6171 6125 6098 6107 6196 6234 6123 5805 5486 5324 5357 5541 5748 5962 6387 7255 7625 7164 6398 5785 5626 5626 5726 5787 5814
8580 8478 8283 7980 7837 7647 7430 7226 7080 6969 6874 6816 6703 6600 6541 6537 6737 6873 6908 6789 6628 6462 6389 6458 6547 6482 6392 6354 6492 6730 6982 7251 7383 7400 7289 7066 6773 6498 6287 6119 6080 6019 5950 5872 5822 5761 5664 5556 5482 5417 5312 5159 4932 4800 4801 5062 5393 5586 5872 6461 7284 7526 7158 6153 5813 5736 5763 5790 5750
8440 8285 8098 7861 7784 7635 7425 7212 7095 6953 6802 6580 6381 6247 6201 6237 6441 6574 6613 6513 6363 6236 6216 6304 6426 6506 6595 6704 6894 7113 7316 7498 7518 7412 7205 6934 6613 6341 6101 5913 5778 5634 5476 5291 5174 5098 5053 5014 4948 4902 4867 4853 4781 4648 4561 4667 5073 5386 5628 5843 6255 6381 6266 5933 5815 5773 5759 5749 5733
8006 7957 7934 7912 7825 7686 7567 7505 7367 7191 6966 6678 6381 6181 6064 6075 6221 6308 6351 6300 6154 6076 6088 6247 6522 6799 7015 7139 7197 7242 7280 7274 7166 7030 6822 6594 6312 6033 5752 5435 5151 4917 4751 4632 4616 4649 4699 4761 4797 4839 4875 4935 4950 4910 4848 4750 4910 5109 5303 5431 5539 5578 5617 5650 5677 5668 5689 5734 5787
7791 7813 7852 7869 7806 7807 7824 7780 7614 7395 7133 6825 6487 6294 6173 6127 6141 6153 6163 6145 6098 6171 6351 6665 6983 7191 7279 7241 7139 7032 6905 6780 6614 6462 6269 6064 5755 5427 5070 4741 4531 4421 4379 4408 4500 4611 4727 4824 4909 4986 5055 5123 5179 5209 5223 5174 5142 5132 5151 5184 5228 5257 5321 5392 5497 5606 5738 5844 5926
7733 7769 7798 7834 7905 7926 7896 7816 7637 7389 7101 6763 6534 6398 6340 6310 6308 6320 6359 6439 6557 6751 6976 7211 7308 7267 7131 6941 6729 6528 6345 6166 5992 5800 5577 5316 5012 4711 4485 4355 4319 4364 4435 4559 4701 4817 4938 5045 5113 5158 5195 5242 5290 5337 5366 5405 5379 5339 5282 5229 5212 5241 5299 5423 5611 5831 6048 6241 6283
7961 7979 7997 8021 8037 7969 7850 7720 7469 7181 6903 6684 6627 6601 6656 6747 6826 6902 6984 7098 7197 7274 7309 7284 7124 6877 6613 6341 6123 5924 5750 5589 5365 5117 4883 4657 4494 4387 4359 4390 4483 4598 4722 4858 4970 5075 5159 5237 5253 5267 5261 5274 5285 5324 5369 5412 5446 5444 5437 5423 5450 5505 5568 5662 5755 5898 6117 6444 6567
8316 8250 8162 8108 8004 7861 7691 7475 7222 7025 6911 6903 6988 7089 7205 7331 7398 7419 7412 7358 7322 7209 7048 6828 6539 6261 5994 5792 5631 5480 5315 5095 4895 4731 4587 4505 4489 4508 4581 4672 4795 4905 5037 5158 5211 5270 5311 5329 5308 5276 5264 5261 5269 5306 5348 5397 5448 5508 5559 5646 5735 5826 5892 5935 5898 5881 5940 6152 6408
8280 8141 8021 7925 7783 7646 7507 7376 7292 7279 7325 7412 7480 7525 7553 7555 7545 7459 7296 7114 6900 6670 6422 6163 5928 5715 5554 5447 5334 5192 5048 4876 4786 4719 4686 4709 4762 4820 4905 5005 5106 5209 5299 5364 5369 5387 5377 5336 5290 5261 5237 5259 5305 5342 5401 5467 5536 5632 5747 5862 5991 6072 6129 6144 6139 6148 6184 6262 6503
8048 7912 7846 7773 7710 7681 7666 7653 7656 7674 7681 7689 7657 7580 7485 7376 7257 7059 6834 6584 6312 6072 5848 5682 5545 5422 5317 5242 5139 5043 4970 4917 4921 4959 4997 5033 5087 5125 5172 5244 5325 5397 5442 5464 5460 5428 5396 5341 5303 5283 5305 5339 5381 5438 5517 5605 5710 5828 5949 6078 6167 6237 6281 6313 6337 6381 6445 6528 6690
7972 7891 7842 7823 7847 7845 7840 7813 7792 7740 7672 7586 7455 7301 7109 6928 6713 6495 6269 6048 5841 5675 5538 5409 5355 5289 5234 5185 5140 5101 5076 5095 5186 5256 5311 5320 5334 5342 5364 5403 5436 5458 5494 5500 5496 5464 5435 5406 5383 5405 5450 5501 5552 5634 5710 5803 5926 6035 6139 6217 6261 6272 6303 6325 6363 6407 6462 6528 6626
7942 7893 7839 7831 7834 7826 7799 7730 7642 7513 7364 7183 6990 6789 6577 6362 6158 5978 5825 5697 5575 5451 5356 5293 5278 5261 5283 5274 5261 5251 5269 5341 5451 5487 5501 5471 5459 5475 5469 5474 5486 5494 5525 5550 5535 5531 5508 5474 5485 5541 5612 5683 5764 5842 5940 6029 6118 6168 6218 6237 6226 6221 6221 6248 6292 6339 6396 6453 6552
7870 7815 7735 7677 7647 7594 7489 7382 7228 7046 6850 6619 6428 6235 6072 5903 5754 5646 5591 5537 5470 5416 5382 5379 5395 5412 5403 5420 5419 5460 5484 5547 5604 5612 5601 5545 5524 5512 5498 5524 5539 5547 5567 5597 5611 5594 5579 5575 5606 5662 5757 5841 5919 5994 6066 6144 6176 6185 6194 6161 6139 6119 6141 6166 6223 6283 6351 6441 6567
7597 7492 7401 7302 7208 7087 6946 6777 6614 6426 6250 6053 5895 5768 5655 5592 5555 5540 5550 5556 5547 5551 5568 5587 5595 5581 5581 5594 5640 5647 5651 5649 5679 5664 5633 5602 5571 5568 5576 5572 5584 5609 5618 5662 5686 5691 5707 5723 5769 5822 5891 5955 6008 6063 6080 6085 6105 6077 6064 6028 6017 6030 6074 6120 6219 6318 6419 6542 6707